User: anonymous   Login
Location: Unspecified
(0.0000°N, 0.0000°E)
Time: 00:31:09
(UTC+00:00)
Language:

ES'HAIL 2 - Orbit

View from above orbital plane
View from above orbital plane
View from above satellite
View from above satellite

Ground track
Ground track

The orbit is defined by the following mean orbital elements,

1 43700U          26138.81566816 +.00000000 +00000-0 +00000-0 0 00008
2 43700   0.0148 324.5139 0001252 123.5484 107.8717  1.00269597    03
Epoch (UTC): 18 May 2026 19:34:33
Eccentricity: 0.0001252
inclination: 0.0148°
perigee height: 35782 km
apogee height: 35792 km
right ascension of ascending node: 324.5139°
argument of perigee: 123.5484°
revolutions per day: 1.00269597
mean anomaly at epoch: 107.8717°

The dashed part of the orbit path shows where the satellite is in the earth's shadow,  

DLR